Showing default

GREB, 731

Orbit data source: Space-Track

GREB, 731 is an American payload satellite in LEO that was launched on Sat, 11 Jan 1964 UTC via a THOR SLV-2A AGENA D launch vehicle from the Air Force Western Test Range (AFWTR). Payload-class satellites include a variety of spacecraft equipped with specific instruments for various scientific and technological missions. These include communications satellites like Starlink; space stations such as the ISS; scientific satellites like the Hubble; Earth observation satellites from companies like Planet Labs, Umbra, and HawkEye 360; GPS; miniature CubeSats for education and research; and military/defense satellites.

Loading next visibility...
Identifier
731, 1964-001E
Orbit
LEO
Last TLE update
15 hours ago
Origin
Manufacturer
NRL
Mission
Defense Sigint
Bus & Motor
NRL 20", Unknown motor
Mass
29 kg wet, 29 kg dry
Launch date (UTC)
1964-01-11 (61 years ago)
Launch vehicle
THOR SLV-2A AGENA D
Launch site
Air Force Western Test Range (AFWTR)
Object type
Payload
Rocket body
Debris
Shape & HBR
Sphere, 0.5 m
Radar Cross Section
0.196 m², Medium (>0.1 m² and < 1m²)

Expand to show TLE details & history

TLE from 15 hours ago
0 GREB
1 00731U 64001E   25181.75904212  .00000031  00000-0  61430-4 0  9991
2 00731  69.9070 302.0892 0011615 126.1704 234.0477 13.96238157128523
Epoch: 2025-06-30T18:13Z
TLE epoch observation values (Epoch: 2025-06-30T18:13:01.239Z)
Latitude
-0.00004°
Longitude
109.76978°
Altitude
914.132 km
Speed
7.393 km/s
True Right ascension
20h 08m 21s
True Declination
0° 00' 00"
Sunlit
Object was in full shadow at epoch
Visualization orbit readout
Latitude
10.64164°
Longitude
-75.45339°
Altitude
902.235 km
Speed
7.405 km/s
Apparent Right ascension
08h 02m 35s
Apparent Declination
-12° 49' 08"
Sunlit
Object is in daylight
Visualization observer readout
Local Sidereal Time
20:24:42
Azimuth
11.728° NNE
Elevation
-62.468°
Doppler factor
1
Orbital elements
Apogee altitude
913.363 km
Perigee altitude
896.444 km
Semi-major axis
7,283.04 km
Eccentricity
0.00116
Inclination
69.907°
RAAN
302.0892°
Arg. of periapsis
126.1704°
True anomaly
Unknown
Mean anomaly
234.0477°
Eccentric anomaly
Unknown
Mean motion
3.492 °/min
Orbital period
103.09 mins
BSTAR
0.00006143
Loading maneuver chart data...
Loading SW <> Apogee altitude chart data...
Loading historical data...
Loading historical data...
Loading historical data...
Loading historical data...
Loading historical data...
Loading historical data...
Loading historical data...
Other satellites on launch #1 in the year 1964 (1964-01-11 UTC)

GREB Visibility forecast

Observer location: undefined°, undefined°

Span
Click to sort rows by Start time (UTC) header in descending order
Start Az.
Max El. time (UTC)
Max El. Az.
Max El.
End time (UTC)
End Az.
11 mins2025-07-01 09:48:32.154Z214.914° SW2025-07-01 09:54:32.154Z315.124° NNW42.089°2025-07-01 09:59:32.154Z18.15° NNE
10 mins2025-07-01 18:51:32.154Z340.872° N2025-07-01 18:56:32.154Z96.381° ESE43.305°2025-07-01 19:01:32.154Z148.721° SSE
4 mins2025-07-01 20:39:32.154Z278.06° WNW2025-07-01 20:41:32.154Z255.05° W14.814°2025-07-01 20:43:32.154Z233.623° WSW
7 mins2025-07-02 08:10:32.154Z143.499° SSE2025-07-02 08:13:32.154Z104.852° ESE22.758°2025-07-02 08:17:32.154Z55.884° ENE
|